This is the latest recevied weather packets stored in our database for station/object E25DQY-1. If no packets are shown the sender has not sent any weather packets the latest 10 day(s).
| Time | Temp. | Humidity | Pressure | Rain* | Wind** | Luminosity | Snow |
|---|---|---|---|---|---|---|---|
| 1778382689 | 28.89° C | 41% | 1006 hPa | - | - | 0 W/m² | - |
| 1778380867 | 28.89° C | 44% | 1006 hPa | - | - | 0 W/m² | - |
| 1778379044 | 29.44° C | 47% | 1006 hPa | - | - | 0 W/m² | - |
| 1778377222 | 28.33° C | 47% | 1006 hPa | - | - | 0 W/m² | - |
| 1778375400 | 27.78° C | 47% | 1006 hPa | - | - | 0 W/m² | - |
| 1778373578 | 27.22° C | 53% | 1005 hPa | - | - | 0 W/m² | - |
| 1778371756 | 26.67° C | 59% | 1005 hPa | - | - | 0 W/m² | - |
| 1778369934 | 26.67° C | 62% | 1004 hPa | - | - | 0 W/m² | - |
| 1778366290 | 26.11° C | 64% | 1004 hPa | - | - | 0 W/m² | - |
| 1778364468 | 26.11° C | 62% | 1004 hPa | - | - | 0 W/m² | - |
| 1778362646 | 26.67° C | 61% | 1004 hPa | - | - | 0 W/m² | - |
| 1778360824 | 26.11° C | 63% | 1004 hPa | - | - | 0 W/m² | - |
| 1778359002 | 26.11° C | 60% | 1004 hPa | - | - | 0 W/m² | - |
| 1778357180 | 26.67° C | 62% | 1004 hPa | - | - | 0 W/m² | - |
| 1778337137 | 26.67° C | 57% | 1005 hPa | - | - | 0 W/m² | - |
| 1778335315 | 26.67° C | 56% | 1004 hPa | - | - | 0 W/m² | - |
| 1778333493 | 26.67° C | 54% | 1004 hPa | - | - | 0 W/m² | - |
| 1778329849 | 26.67° C | 53% | 1003 hPa | - | - | 0 W/m² | - |
| 1778328027 | 26.67° C | 50% | 1003 hPa | - | - | 0 W/m² | - |
| 1778322561 | 27.78° C | 42% | 1002 hPa | - | - | 0 W/m² | - |
| 1778320739 | 27.78° C | 42% | 1002 hPa | - | - | 0 W/m² | - |
| 1778318917 | 27.78° C | 40% | 1001 hPa | - | - | 0 W/m² | - |
| 1778317095 | 28.89° C | 39% | 1001 hPa | - | - | 0 W/m² | - |
| 1778315272 | 29.44° C | 37% | 1002 hPa | - | - | 0 W/m² | - |
| 1778313450 | 29.44° C | 37% | 1002 hPa | - | - | 0 W/m² | - |
* Rain since midnight (hover to see other rain measurements)
** Current wind speed in m/s (hover to see current wind gust speed)